timestamp,surface_pressure_avg,surface_temp_avg,battery_voltage,lat,long
2018-01-15 00:00:00+00:00,306.9763,2.7,12.65,47.84626,-54.09684
2018-01-15 00:10:00+00:00,297.298,2.69,12.65,47.84626,-54.09684
2018-01-15 00:20:00+00:00,289.5181,2.7,12.73,47.84626,-54.09684
2018-01-15 00:30:00+00:00,287.3714,2.6,12.73,47.84626,-54.09684
2018-01-15 00:40:00+00:00,287.533,2.6,12.73,47.84626,-54.09684
2018-01-15 00:50:00+00:00,276.9497,2.6,12.73,47.84626,-54.09684
2018-01-15 01:00:00+00:00,271.1148,2.6,12.65,47.84626,-54.09684
2018-01-15 01:10:00+00:00,266.9997,2.66,12.65,47.84626,-54.09684
2018-01-15 01:20:00+00:00,263.4364,2.7,12.73,47.84626,-54.09684
2018-01-15 01:30:00+00:00,241.9164,2.7,12.73,47.84626,-54.09684
2018-01-15 01:40:00+00:00,236.4448,2.71,12.73,47.84626,-54.09684
2018-01-15 01:50:00+00:00,238.6664,2.7,12.73,47.84626,-54.09684
2018-01-15 02:00:00+00:00,220.0047,2.72,12.65,47.84626,-54.09684
2018-01-15 02:10:00+00:00,217.6564,2.77,12.65,47.84626,-54.09684
2018-01-15 02:20:00+00:00,221.6098,2.77,12.73,47.84626,-54.09684
2018-01-15 02:30:00+00:00,211.3264,2.77,12.73,47.84626,-54.09684
2018-01-15 02:40:00+00:00,206.7214,2.79,12.73,47.84626,-54.09684
2018-01-15 02:50:00+00:00,217.7265,2.77,12.73,47.84626,-54.09684
2018-01-15 03:00:00+00:00,212.4731,2.75,12.65,47.84626,-54.09684
2018-01-15 03:10:00+00:00,198.848,2.8,12.65,47.84626,-54.09684
2018-01-15 03:20:00+00:00,199.8714,2.8,12.73,47.84626,-54.09684
2018-01-15 03:30:00+00:00,199.7681,2.8,12.73,47.84626,-54.09684
2018-01-15 03:40:00+00:00,186.9981,2.8,12.73,47.84626,-54.09684
2018-01-15 03:50:00+00:00,185.1848,2.8,12.73,47.84626,-54.09684
2018-01-15 04:00:00+00:00,181.0148,2.8,12.65,47.84626,-54.09684
2018-01-15 04:10:00+00:00,175.5248,2.8,12.65,47.84626,-54.09684
2018-01-15 04:20:00+00:00,188.8148,2.8,12.73,47.84626,-54.09684
2018-01-15 04:30:00+00:00,201.0848,2.79,12.73,47.84626,-54.09684
2018-01-15 04:40:00+00:00,194.9148,2.8,12.73,47.84626,-54.09684
2018-01-15 04:50:00+00:00,189.3681,2.72,12.73,47.84626,-54.09684
2018-01-15 05:00:00+00:00,203.9331,2.75,12.65,47.84626,-54.09684
2018-01-15 05:10:00+00:00,212.3198,2.76,12.65,47.84626,-54.09684
2018-01-15 05:20:00+00:00,191.6298,2.79,12.73,47.84626,-54.09684
2018-01-15 05:30:00+00:00,187.1831,2.8,12.73,47.84626,-54.09684
2018-01-15 05:40:00+00:00,215.6914,2.78,12.73,47.84626,-54.09684
2018-01-15 05:50:00+00:00,220.2531,2.78,12.73,47.84626,-54.09684
2018-01-15 06:00:00+00:00,215.8198,2.7,12.65,47.84626,-54.09684
2018-01-15 06:10:00+00:00,230.3214,2.7,12.65,47.84626,-54.09684
2018-01-15 06:20:00+00:00,249.4197,2.7,12.73,47.84626,-54.09684
2018-01-15 06:30:00+00:00,243.4931,2.7,12.73,47.84626,-54.09684
2018-01-15 06:40:00+00:00,233.1731,2.7,12.73,47.84626,-54.09684
2018-01-15 06:50:00+00:00,251.3598,2.68,12.73,47.84626,-54.09684
2018-01-15 07:00:00+00:00,263.9481,2.7,12.65,47.84626,-54.09684
2018-01-15 07:10:00+00:00,251.5581,2.7,12.65,47.84626,-54.09684
2018-01-15 07:20:00+00:00,234.8381,2.7,12.73,47.84626,-54.09684
2018-01-15 07:30:00+00:00,255.2697,2.68,12.65,47.84626,-54.09684
2018-01-15 07:40:00+00:00,266.3898,2.7,12.73,47.84626,-54.09684
2018-01-15 07:50:00+00:00,266.7331,2.6,12.73,47.84626,-54.09684
2018-01-15 08:00:00+00:00,272.9681,2.58,12.65,47.84626,-54.09684
2018-01-15 08:10:00+00:00,282.3881,2.6,12.65,47.84626,-54.09684
2018-01-15 08:20:00+00:00,275.6047,2.6,12.73,47.84626,-54.09684
2018-01-15 08:30:00+00:00,279.7031,2.6,12.65,47.84626,-54.09684
2018-01-15 08:40:00+00:00,294.5081,2.59,12.73,47.84626,-54.09684
2018-01-15 08:50:00+00:00,313.7496,2.6,12.73,47.84626,-54.09684
2018-01-15 09:00:00+00:00,310.1013,2.55,12.65,47.84626,-54.09684
2018-01-15 09:10:00+00:00,312.773,2.5,12.65,47.84626,-54.09684
2018-01-15 09:20:00+00:00,324.4464,2.54,12.65,47.84626,-54.09684
2018-01-15 09:30:00+00:00,331.0179,2.6,12.65,47.84626,-54.09684
2018-01-15 09:40:00+00:00,328.4246,2.5,12.73,47.84626,-54.09684
2018-01-15 09:50:00+00:00,326.403,2.5,12.73,47.84626,-54.09684
2018-01-15 10:00:00+00:00,335.9014,2.5,12.65,47.84626,-54.09684
2018-01-15 10:10:00+00:00,332.6863,2.5,12.65,47.84626,-54.09684
2018-01-15 10:20:00+00:00,327.423,2.5,12.65,47.84626,-54.09684
2018-01-15 10:30:00+00:00,333.3663,2.5,12.65,47.84626,-54.09684
2018-01-15 10:40:00+00:00,335.493,2.5,12.73,47.84626,-54.09684
2018-01-15 10:50:00+00:00,337.1463,2.5,12.73,47.84626,-54.09684
2018-01-15 11:00:00+00:00,343.9346,2.5,12.65,47.84626,-54.09684
2018-01-15 11:10:00+00:00,334.7547,2.5,12.65,47.84626,-54.09684
2018-01-15 11:20:00+00:00,341.9596,2.5,12.65,47.84626,-54.09684
2018-01-15 11:30:00+00:00,346.2913,2.5,12.65,47.84626,-54.09684
2018-01-15 11:40:00+00:00,337.5847,2.49,12.73,47.84626,-54.09684
2018-01-15 11:50:00+00:00,332.7629,2.49,12.73,47.84626,-54.09684
2018-01-15 12:00:00+00:00,336.3846,2.48,12.65,47.84626,-54.09684
2018-01-15 12:10:00+00:00,334.838,2.49,12.65,47.84626,-54.09684
2018-01-15 12:20:00+00:00,323.6897,2.3,12.65,47.84626,-54.09684
2018-01-15 12:30:00+00:00,326.8563,2.47,12.65,47.84626,-54.09684
2018-01-15 12:40:00+00:00,335.7047,2.5,12.73,47.84626,-54.09684
2018-01-15 12:50:00+00:00,322.3346,2.5,12.73,47.84626,-54.09684
2018-01-15 13:00:00+00:00,301.3997,2.5,12.65,47.84626,-54.09684
2018-01-15 13:10:00+00:00,295.023,2.5,12.65,47.84626,-54.09684
2018-01-15 13:20:00+00:00,297.1847,2.5,12.73,47.84626,-54.09684
2018-01-15 13:30:00+00:00,287.9331,2.5,12.73,47.84626,-54.09684
2018-01-15 13:40:00+00:00,274.0514,2.5,12.73,47.84626,-54.09684
2018-01-15 13:50:00+00:00,272.8514,2.5,12.73,47.84626,-54.09684
2018-01-15 14:00:00+00:00,271.2348,2.5,12.73,47.84626,-54.09684
2018-01-15 14:10:00+00:00,258.8731,2.5,12.65,47.84626,-54.09684
2018-01-15 14:20:00+00:00,254.8764,2.5,12.73,47.84626,-54.09684
2018-01-15 14:30:00+00:00,254.4414,2.4,12.73,47.84626,-54.09684
2018-01-15 14:40:00+00:00,251.6731,2.4,12.81,47.84626,-54.09684
2018-01-15 14:50:00+00:00,240.2364,2.4,12.81,47.84626,-54.09684
2018-01-15 15:00:00+00:00,232.6215,2.4,12.73,47.84626,-54.09684
2018-01-15 15:10:00+00:00,221.8081,2.4,12.73,47.84626,-54.09684
2018-01-15 15:20:00+00:00,212.7782,2.4,12.89,47.84626,-54.09684
2018-01-15 15:30:00+00:00,213.0047,2.4,12.89,47.84626,-54.09684
2018-01-15 15:40:00+00:00,211.4714,2.4,12.89,47.84626,-54.09684
2018-01-15 15:50:00+00:00,201.8848,2.4,12.97,47.84626,-54.09684
2018-01-15 16:00:00+00:00,192.5531,2.4,12.97,47.84626,-54.09684
2018-01-15 16:10:00+00:00,201.5464,2.44,12.89,47.84626,-54.09684
2018-01-15 16:20:00+00:00,201.0364,2.47,13.05,47.84626,-54.09684
2018-01-15 16:30:00+00:00,192.1815,2.46,13.05,47.84626,-54.09684
2018-01-15 16:40:00+00:00,202.2015,2.49,13.05,47.84626,-54.09684
2018-01-15 16:50:00+00:00,204.7548,2.5,13.13,47.84626,-54.09684
2018-01-15 17:00:00+00:00,187.2298,2.5,13.05,47.84626,-54.09684
2018-01-15 17:10:00+00:00,181.1631,2.5,12.97,47.84626,-54.09684
2018-01-15 17:20:00+00:00,185.4815,2.5,13.05,47.84626,-54.09684
2018-01-15 17:30:00+00:00,182.8798,2.5,13.13,47.84626,-54.09684
2018-01-15 17:40:00+00:00,192.1565,2.49,13.13,47.84626,-54.09684
2018-01-15 17:50:00+00:00,199.4514,2.12,13.21,47.84626,-54.09684
2018-01-15 18:00:00+00:00,213.1031,2.39,13.13,47.84626,-54.09684
2018-01-15 18:10:00+00:00,209.9248,2.4,13.05,47.84626,-54.09684
2018-01-15 18:20:00+00:00,218.5064,2.4,13.13,47.84626,-54.09684
2018-01-15 18:30:00+00:00,233.1331,2.41,13.13,47.84626,-54.09684
2018-01-15 18:40:00+00:00,214.6431,2.4,13.05,47.84626,-54.09684
2018-01-15 18:50:00+00:00,205.6082,2.4,13.05,47.84626,-54.09684
2018-01-15 19:00:00+00:00,228.3314,2.4,12.97,47.84626,-54.09684
2018-01-15 19:10:00+00:00,235.0198,2.4,12.97,47.84626,-54.09684
2018-01-15 19:20:00+00:00,218.6414,2.39,13.05,47.84626,-54.09684
2018-01-15 19:30:00+00:00,216.2648,2.4,12.97,47.84626,-54.09684
2018-01-15 19:40:00+00:00,243.5748,2.4,12.97,47.84626,-54.09684
2018-01-15 19:50:00+00:00,251.8731,2.38,12.97,47.84626,-54.09684
2018-01-15 20:00:00+00:00,250.1098,2.4,12.89,47.84626,-54.09684
2018-01-15 20:10:00+00:00,252.1598,2.4,12.81,47.84626,-54.09684
2018-01-15 20:20:00+00:00,259.8931,2.4,12.81,47.84626,-54.09684
2018-01-15 20:30:00+00:00,250.1131,2.4,12.81,47.84626,-54.09684
2018-01-15 20:40:00+00:00,258.3581,2.4,12.81,47.84626,-54.09684
2018-01-15 20:50:00+00:00,281.6014,2.4,12.81,47.84626,-54.09684
2018-01-15 21:00:00+00:00,284.4647,2.4,12.73,47.84626,-54.09684
2018-01-15 21:10:00+00:00,268.7097,2.4,12.73,47.84626,-54.09684
2018-01-15 21:20:00+00:00,286.5164,2.4,12.81,47.84626,-54.09684
2018-01-15 21:30:00+00:00,315.468,2.4,12.73,47.84626,-54.09684
2018-01-15 21:40:00+00:00,314.3196,2.4,12.81,47.84626,-54.09684
2018-01-15 21:50:00+00:00,308.868,2.4,12.81,47.84626,-54.09684
2018-01-15 22:00:00+00:00,326.683,2.4,12.73,47.84626,-54.09684
2018-01-15 22:10:00+00:00,336.7247,2.4,12.65,47.84626,-54.09684
2018-01-15 22:20:00+00:00,323.5446,2.4,12.73,47.84626,-54.09684
2018-01-15 22:30:00+00:00,325.1197,2.4,12.73,47.84626,-54.09684
2018-01-15 22:40:00+00:00,336.7413,2.4,12.73,47.84626,-54.09684
2018-01-15 22:50:00+00:00,338.6998,2.4,12.73,47.84626,-54.09684
2018-01-15 23:00:00+00:00,324.3848,2.4,12.65,47.84626,-54.09684
2018-01-15 23:10:00+00:00,328.8563,2.4,12.65,47.84626,-54.09684
2018-01-15 23:20:00+00:00,338.8663,2.4,12.73,47.84626,-54.09684
2018-01-15 23:30:00+00:00,338.4447,2.4,12.73,47.84626,-54.09684
2018-01-15 23:40:00+00:00,327.353,2.4,12.73,47.84626,-54.09684
2018-01-15 23:50:00+00:00,318.6313,2.4,12.73,47.84626,-54.09684
